• In Deutschland
  • Länderverzeichnis
  • Für 7 Tage
  • Wassertemperatur
  • Satellitenkarten
  • Wetterkarte
  • Widgets
  • user-avatar
    Anmelden

    Stündliche Wetter Berat

    Heute, 22 Januar, Montag

    Zeit Temperatur Niederschläge Wind Luftdruck Luftfeuchtigkeit
    00:00 +8°C° 0,2 mm 3 m/S 735 mmHg 95%
    01:00 +6°C° 0 mm 4 m/S 735 mmHg 94%
    02:00 +6°C° 0,2 mm 4 m/S 735 mmHg 92%
    03:00 +5°C° 0,2 mm 4 m/S 736 mmHg 91%
    04:00 +5°C° 0,2 mm 4 m/S 737 mmHg 89%
    05:00 +4°C° 0 mm 4 m/S 737 mmHg 88%
    06:00 +3°C° 0 mm 4 m/S 738 mmHg 87%
    07:00 +3°C° 0 mm 4 m/S 738 mmHg 86%
    08:00 +4°C° 0 mm 4 m/S 739 mmHg 79%
    09:00 +5°C° 0 mm 4 m/S 739 mmHg 72%
    10:00 +6°C° 0 mm 4 m/S 740 mmHg 65%
    11:00 +6°C° 0 mm 4 m/S 740 mmHg 62%
    12:00 +6°C° 0 mm 4 m/S 740 mmHg 60%
    13:00 +7°C° 0 mm 5 m/S 740 mmHg 58%
    14:00 +7°C° 0 mm 4 m/S 740 mmHg 61%
    15:00 +6°C° 0 mm 4 m/S 741 mmHg 63%
    16:00 +7°C° 0 mm 3 m/S 741 mmHg 66%
    17:00 +5°C° 0 mm 3 m/S 742 mmHg 68%
    18:00 +5°C° 0 mm 2 m/S 742 mmHg 71%
    19:00 +4°C° 0 mm 2 m/S 743 mmHg 74%
    20:00 +4°C° 0 mm 2 m/S 743 mmHg 74%
    21:00 +4°C° 0 mm 2 m/S 743 mmHg 74%
    22:00 +3°C° 0 mm 2 m/S 744 mmHg 73%
    23:00 +3°C° 0 mm 2 m/S 744 mmHg 73%

    Morgen, 23 Januar, Dienstag

    Zeit Temperatur Niederschläge Wind Luftdruck Luftfeuchtigkeit
    00:00 +3°C° 0 mm 2 m/S 744 mmHg 72%
    01:00 +3°C° 0 mm 2 m/S 744 mmHg 72%
    02:00 +4°C° 0 mm 2 m/S 744 mmHg 70%
    03:00 +4°C° 0 mm 2 m/S 744 mmHg 69%
    04:00 +4°C° 0 mm 2 m/S 744 mmHg 68%
    05:00 +4°C° 0 mm 2 m/S 744 mmHg 66%
    06:00 +4°C° 0 mm 2 m/S 744 mmHg 64%
    07:00 +4°C° 0 mm 2 m/S 745 mmHg 62%
    08:00 +6°C° 0 mm 2 m/S 745 mmHg 58%
    09:00 +8°C° 0 mm 1 m/S 746 mmHg 54%
    10:00 +10°C° 0 mm 1 m/S 746 mmHg 50%
    11:00 +9°C° 0,1 mm 2 m/S 746 mmHg 51%
    12:00 +9°C° 0,1 mm 2 m/S 746 mmHg 51%
    13:00 +9°C° 0,1 mm 2 m/S 746 mmHg 52%
    14:00 +9°C° 0 mm 2 m/S 747 mmHg 56%
    15:00 +9°C° 0 mm 2 m/S 747 mmHg 60%
    16:00 +8°C° 0 mm 2 m/S 747 mmHg 63%
    17:00 +8°C° 0 mm 2 m/S 748 mmHg 65%
    18:00 +7°C° 0 mm 2 m/S 748 mmHg 66%
    19:00 +6°C° 0 mm 2 m/S 749 mmHg 68%
    20:00 +6°C° 0 mm 2 m/S 749 mmHg 69%
    21:00 +6°C° 0 mm 2 m/S 750 mmHg 70%
    22:00 +5°C° 0 mm 2 m/S 750 mmHg 71%
    23:00 +5°C° 0 mm 2 m/S 750 mmHg 71%

    übermorgen, 24 Januar, Mittwoch

    Zeit Temperatur Niederschläge Wind Luftdruck Luftfeuchtigkeit
    00:00 +5°C° 0 mm 2 m/S 751 mmHg 71%
    01:00 +3°C° 0 mm 3 m/S 751 mmHg 72%
    02:00 +3°C° 0 mm 3 m/S 751 mmHg 71%
    03:00 +3°C° 0 mm 3 m/S 751 mmHg 71%
    04:00 +2°C° 0 mm 3 m/S 752 mmHg 71%
    05:00 +2°C° 0 mm 3 m/S 752 mmHg 71%
    06:00 +2°C° 0 mm 3 m/S 753 mmHg 71%
    07:00 +2°C° 0 mm 3 m/S 753 mmHg 71%
    08:00 +4°C° 0 mm 3 m/S 753 mmHg 65%
    09:00 +5°C° 0 mm 3 m/S 754 mmHg 60%
    10:00 +8°C° 0 mm 3 m/S 754 mmHg 55%
    11:00 +8°C° 0 mm 2 m/S 754 mmHg 51%
    12:00 +9°C° 0 mm 2 m/S 754 mmHg 48%
    13:00 +10°C° 0 mm 2 m/S 754 mmHg 45%
    14:00 +9°C° 0 mm 2 m/S 754 mmHg 49%
    15:00 +9°C° 0 mm 2 m/S 754 mmHg 52%
    16:00 +9°C° 0 mm 2 m/S 754 mmHg 56%
    17:00 +7°C° 0 mm 2 m/S 754 mmHg 59%
    18:00 +6°C° 0 mm 2 m/S 755 mmHg 61%
    19:00 +5°C° 0 mm 2 m/S 755 mmHg 64%
    20:00 +5°C° 0 mm 2 m/S 755 mmHg 65%
    21:00 +4°C° 0 mm 2 m/S 755 mmHg 65%
    22:00 +4°C° 0 mm 2 m/S 756 mmHg 66%
    23:00 +4°C° 0 mm 2 m/S 756 mmHg 66%

    25 Januar, Donnerstag

    Zeit Temperatur Niederschläge Wind Luftdruck Luftfeuchtigkeit
    00:00 +4°C° 0 mm 2 m/S 756 mmHg 66%
    01:00 +4°C° 0 mm 2 m/S 755 mmHg 66%
    02:00 +3°C° 0 mm 2 m/S 755 mmHg 65%
    03:00 +3°C° 0 mm 2 m/S 755 mmHg 64%
    04:00 +3°C° 0 mm 2 m/S 755 mmHg 63%
    05:00 +3°C° 0 mm 2 m/S 755 mmHg 62%
    06:00 +3°C° 0 mm 2 m/S 755 mmHg 61%
    07:00 +3°C° 0 mm 2 m/S 755 mmHg 59%
    08:00 +5°C° 0 mm 2 m/S 755 mmHg 54%
    09:00 +8°C° 0 mm 1 m/S 755 mmHg 49%
    10:00 +10°C° 0 mm 1 m/S 755 mmHg 43%
    11:00 +11°C° 0 mm 1 m/S 755 mmHg 42%
    12:00 +11°C° 0 mm 1 m/S 754 mmHg 41%
    13:00 +12°C° 0 mm 1 m/S 754 mmHg 40%
    14:00 +12°C° 0 mm 1 m/S 753 mmHg 45%
    15:00 +11°C° 0 mm 1 m/S 753 mmHg 50%
    16:00 +10°C° 0 mm 1 m/S 753 mmHg 55%
    17:00 +9°C° 0 mm 1 m/S 753 mmHg 58%
    18:00 +8°C° 0 mm 1 m/S 753 mmHg 61%
    19:00 +7°C° 0 mm 1 m/S 753 mmHg 63%
    20:00 +7°C° 0 mm 1 m/S 753 mmHg 63%
    21:00 +7°C° 0 mm 1 m/S 753 mmHg 63%
    22:00 +6°C° 0 mm 1 m/S 753 mmHg 63%
    23:00 +6°C° 0 mm 1 m/S 753 mmHg 62%

    26 Januar, Freitag

    Zeit Temperatur Niederschläge Wind Luftdruck Luftfeuchtigkeit
    00:00 +6°C° 0 mm 1 m/S 752 mmHg 62%
    01:00 +6°C° 0 mm 1 m/S 752 mmHg 61%
    02:00 +6°C° 0 mm 1 m/S 752 mmHg 60%
    03:00 +5°C° 0 mm 2 m/S 752 mmHg 60%
    04:00 +5°C° 0 mm 2 m/S 751 mmHg 59%
    05:00 +5°C° 0 mm 2 m/S 751 mmHg 58%
    06:00 +5°C° 0 mm 2 m/S 752 mmHg 57%
    07:00 +5°C° 0 mm 2 m/S 752 mmHg 57%
    08:00 +7°C° 0 mm 2 m/S 752 mmHg 54%
    09:00 +8°C° 0 mm 2 m/S 752 mmHg 50%
    10:00 +11°C° 0 mm 1 m/S 752 mmHg 47%
    11:00 +12°C° 0 mm 2 m/S 751 mmHg 48%
    12:00 +13°C° 0 mm 2 m/S 751 mmHg 49%
    13:00 +13°C° 0 mm 2 m/S 751 mmHg 49%
    14:00 +13°C° 0 mm 2 m/S 751 mmHg 54%
    15:00 +12°C° 0 mm 2 m/S 750 mmHg 60%
    16:00 +12°C° 0 mm 2 m/S 750 mmHg 65%
    17:00 +10°C° 0 mm 1 m/S 751 mmHg 68%
    18:00 +9°C° 0 mm 1 m/S 751 mmHg 72%
    19:00 +8°C° 0 mm 1 m/S 751 mmHg 76%
    20:00 +8°C° 0 mm 1 m/S 751 mmHg 76%
    21:00 +7°C° 0 mm 2 m/S 751 mmHg 76%
    22:00 +6°C° 0 mm 2 m/S 752 mmHg 76%
    23:00 +6°C° 0 mm 2 m/S 752 mmHg 75%

    27 Januar, Samstag

    Zeit Temperatur Niederschläge Wind Luftdruck Luftfeuchtigkeit
    00:00 +6°C° 0 mm 2 m/S 752 mmHg 75%
    01:00 +6°C° 0 mm 2 m/S 752 mmHg 74%
    02:00 +6°C° 0 mm 2 m/S 751 mmHg 73%
    03:00 +6°C° 0 mm 2 m/S 751 mmHg 72%
    04:00 +6°C° 0 mm 2 m/S 751 mmHg 72%
    05:00 +6°C° 0 mm 2 m/S 751 mmHg 71%
    06:00 +5°C° 0 mm 2 m/S 751 mmHg 70%
    07:00 +5°C° 0 mm 2 m/S 752 mmHg 69%
    08:00 +7°C° 0 mm 2 m/S 752 mmHg 63%
    09:00 +9°C° 0 mm 2 m/S 752 mmHg 57%
    10:00 +12°C° 0 mm 1 m/S 752 mmHg 51%
    11:00 +13°C° 0 mm 1 m/S 752 mmHg 49%
    12:00 +14°C° 0 mm 1 m/S 752 mmHg 47%
    13:00 +15°C° 0 mm 1 m/S 752 mmHg 44%
    14:00 +14°C° 0 mm 1 m/S 752 mmHg 49%
    15:00 +13°C° 0 mm 1 m/S 752 mmHg 53%
    16:00 +13°C° 0 mm 1 m/S 752 mmHg 58%
    17:00 +12°C° 0 mm 1 m/S 752 mmHg 61%
    18:00 +10°C° 0 mm 1 m/S 752 mmHg 64%
    19:00 +9°C° 0 mm 1 m/S 753 mmHg 67%
    20:00 +9°C° 0 mm 1 m/S 753 mmHg 67%
    21:00 +9°C° 0 mm 1 m/S 753 mmHg 67%
    22:00 +8°C° 0 mm 1 m/S 754 mmHg 67%
    23:00 +8°C° 0 mm 1 m/S 754 mmHg 66%
    Mehr zeigen